Location: Mansoura
(31.0409°N, 31.3785°E)
Time: 13:54:17
(UTC+03:00)

Envisat - Visible Passes

Search period start: 20 September 2024 00:00
Search period end: 30 September 2024 00:00
Orbit: 762 x 764 km, 98.3° (Epoch: 19 September)

Date Brightness Start Highest point End Pass type
(mag) Time Alt. Az. Time Alt. Az. Time Alt. Az.
20 Sep 4.8 04:03:50 10° N 04:05:49 24° N 04:05:49 24° N visible
21 Sep 5.5 03:26:42 10° NNE 03:27:48 16° NE 03:27:48 16° NE visible
21 Sep 4.9 05:06:38 10° NNW 05:07:57 15° NW 05:07:57 15° NW visible
22 Sep 4.7 04:28:05 10° N 04:29:56 22° NNW 04:29:56 22° NNW visible
23 Sep 5.2 03:50:28 10° NNE 03:51:56 20° NNE 03:51:56 20° NNE visible
24 Sep 5.9 03:13:39 10° NE 03:13:55 11° NE 03:13:55 11° NE visible
24 Sep 4.9 04:52:41 10° NNW 04:54:03 16° NNW 04:54:03 16° NNW visible
25 Sep 5.0 04:14:32 10° N 04:16:02 20° N 04:16:02 20° N visible
26 Sep 5.6 03:37:10 10° NNE 03:38:01 15° NNE 03:38:01 15° NNE visible
26 Sep 5.2 05:17:58 10° NW 05:18:10 11° NW 05:18:10 11° NW visible
27 Sep 5.0 04:38:56 10° N 04:40:09 17° NNW 04:40:09 17° NNW visible
28 Sep 5.3 04:01:04 10° N 04:02:07 16° N 04:02:07 16° N visible
29 Sep 5.9 03:23:59 10° NNE 03:24:06 11° NNE 03:24:06 11° NNE visible
29 Sep 5.2 05:03:45 10° NNW 05:04:14 12° NNW 05:04:14 12° NNW visible
